| time (UTC) | temp F | wind direction | speed knots | gust knots | rain 1hr in | rain 24hr in | rain mn in | humidity % | barometer mb |
| 20260504021512 | 46 | 286 | 0.0 | 0.0 | 0.00 | 0.00 | 0.00 | 38 | 1011.9 |
| 20260504020014 | 48 | 286 | 0.0 | 0.0 | 0.00 | 0.00 | 0.00 | 36 | 1011.8 |
| 20260504014510 | 50 | 286 | 0.0 | 0.0 | 0.00 | 0.00 | 0.00 | 32 | 1011.8 |
| 20260504013014 | 51 | 286 | 0.0 | 0.0 | 0.00 | 0.00 | 0.00 | 31 | 1011.5 |
| 20260504011510 | 53 | 153 | 0.0 | 0.0 | 0.00 | 0.00 | 0.00 | 30 | 1011.7 |
| 20260504010009 | 55 | 252 | 0.0 | 1.7 | 0.00 | 0.00 | 0.00 | 27 | 1011.7 |
| 20260504004508 | 55 | 199 | 0.0 | 5.2 | 0.00 | 0.00 | 0.00 | 27 | 1012.0 |
| 20260504003005 | 57 | 206 | 0.9 | 5.2 | 0.00 | 0.00 | 0.00 | 26 | 1012.0 |
| 20260504001505 | 56 | 249 | 0.0 | 7.0 | 0.00 | 0.00 | 0.00 | 27 | 1012.2 |
| 20260504000004 | 56 | 243 | 0.0 | 3.5 | 0.00 | 0.00 | 0.00 | 25 | 1012.1 |
| 20260503234503 | 54 | 221 | 0.0 | 6.1 | 0.00 | 0.00 | 0.00 | 26 | 1012.4 |
| 20260503233002 | 55 | 153 | 0.9 | 6.1 | 0.00 | 0.00 | 0.00 | 24 | 1012.3 |
| 20260503231600 | 56 | 84 | 0.9 | 5.2 | 0.00 | 0.00 | 0.00 | 28 | 1012.5 |
| 20260503230100 | 55 | 268 | 0.0 | 2.6 | 0.00 | 0.00 | 0.00 | 30 | 1012.6 |
| 20260503224554 | 54 | 172 | 0.9 | 8.7 | 0.00 | 0.00 | 0.00 | 29 | 1012.8 |
| 20260503223052 | 54 | 268 | 0.0 | 3.5 | 0.00 | 0.00 | 0.00 | 29 | 1012.9 |
| 20260503221550 | 53 | 240 | 0.0 | 2.6 | 0.00 | 0.00 | 0.00 | 30 | 1013.2 |
| 20260503220050 | 53 | 122 | 0.0 | 1.7 | 0.00 | 0.00 | 0.00 | 30 | 1013.4 |
| 20260503214546 | 53 | 122 | 0.0 | 2.6 | 0.00 | 0.00 | 0.00 | 31 | 1013.7 |
| 20260503213047 | 53 | 147 | 0.0 | 2.6 | 0.00 | 0.00 | 0.00 | 30 | 1014.0 |
| 20260503211543 | 54 | 133 | 0.9 | 3.5 | 0.00 | 0.00 | 0.00 | 30 | 1014.3 |
| 20260503210041 | 53 | 163 | 1.7 | 6.1 | 0.00 | 0.00 | 0.00 | 32 | 1014.7 |
| 20260503204540 | 53 | 9 | 0.0 | 2.6 | 0.00 | 0.00 | 0.00 | 32 | 1014.9 |
| 20260503203043 | 54 | 127 | 0.9 | 4.3 | 0.00 | 0.00 | 0.00 | 34 | 1015.0 |
| 20260503201537 | 51 | 158 | 0.0 | 6.1 | 0.00 | 0.00 | 0.00 | 35 | 1015.5 |
| 20260503200036 | 52 | 247 | 0.0 | 6.1 | 0.00 | 0.00 | 0.00 | 34 | 1015.6 |
| 20260503194536 | 52 | 212 | 0.9 | 4.3 | 0.00 | 0.00 | 0.00 | 32 | 1015.8 |
| 20260503193033 | 54 | 199 | 0.0 | 2.6 | 0.00 | 0.00 | 0.00 | 32 | 1015.9 |
| 20260503191532 | 53 | 251 | 0.0 | 3.5 | 0.00 | 0.00 | 0.00 | 33 | 1016.1 |
| 20260503190035 | 52 | 269 | 0.9 | 3.5 | 0.00 | 0.00 | 0.00 | 32 | 1016.4 |
| 20260503184527 | 51 | 145 | 0.9 | 3.5 | 0.00 | 0.00 | 0.00 | 31 | 1016.7 |
| 20260503183026 | 52 | 205 | 0.0 | 3.5 | 0.00 | 0.00 | 0.00 | 31 | 1016.9 |
| 20260503181525 | 53 | 206 | 0.0 | 4.3 | 0.00 | 0.00 | 0.00 | 29 | 1017.1 |
| 20260503180024 | 52 | 248 | 0.0 | 4.3 | 0.00 | 0.00 | 0.00 | 32 | 1017.3 |
| 20260503174529 | 52 | 214 | 0.0 | 7.0 | 0.00 | 0.00 | 0.00 | 31 | 1017.4 |
| 20260503173031 | 54 | 72 | 0.9 | 7.0 | 0.00 | 0.00 | 0.00 | 31 | 1017.4 |
| 20260503171516 | 51 | 77 | 0.9 | 7.0 | 0.00 | 0.00 | 0.00 | 33 | 1017.9 |
| 20260503081518 | 29 | 75 | 0.0 | 0.0 | 0.00 | 0.00 | 0.00 | 73 | 1020.9 |
| 20260503071516 | 30 | 75 | 0.0 | 0.0 | 0.00 | 0.00 | 0.00 | 73 | 1021.3 |
| 20260503054509 | 32 | 75 | 0.0 | 0.0 | 0.00 | 0.00 | 0.00 | 70 | 1020.4 |
| 20260503053002 | 32 | 75 | 0.0 | 0.0 | 0.00 | 0.00 | 0.00 | 70 | 1020.2 |
| 20260503051503 | 33 | 75 | 0.0 | 0.0 | 0.00 | 0.00 | 0.00 | 69 | 1020.2 |
| 20260503050001 | 33 | 75 | 0.0 | 0.0 | 0.00 | 0.00 | 0.00 | 68 | 1020.1 |
| 20260503044604 | 34 | 75 | 0.0 | 0.0 | 0.00 | 0.00 | 0.00 | 67 | 1020.1 |
| 20260503043100 | 35 | 236 | 0.0 | 0.0 | 0.00 | 0.00 | 0.00 | 66 | 1020.1 |
| 20260503041606 | 35 | 236 | 0.0 | 0.0 | 0.00 | 0.00 | 0.00 | 64 | 1020.0 |
| 20260503040100 | 37 | 236 | 0.0 | 0.0 | 0.00 | 0.00 | 0.00 | 63 | 1019.7 |
| 20260503034600 | 37 | 236 | 0.0 | 0.0 | 0.00 | 0.00 | 0.00 | 61 | 1019.5 |
| 20260503033058 | 39 | 236 | 0.0 | 0.0 | 0.00 | 0.00 | 0.00 | 60 | 1019.3 |
| 20260503031558 | 39 | 255 | 0.0 | 1.7 | 0.00 | 0.00 | 0.00 | 59 | 1019.2 |
| 20260503024558 | 40 | 264 | 0.0 | 0.0 | 0.00 | 0.00 | 0.00 | 58 | 1018.7 |
| 20260503023106 | 42 | 264 | 0.0 | 0.0 | 0.00 | 0.00 | 0.00 | 54 | 1018.5 |